カタログに戻る

STARLINK-5246

運用中通信VLEO
NORAD 54198·PAYLOAD·🇺🇸 United States

打ち上げ Oct 28, 2022 から Vandenberg Space Force Base

Loading…

次のパス (今後24時間)

TLE

最新Source: CelesTrak SupGP

元期: Sep 15, 2026, 02:37 UTC

1 54198C 22141AT  26258.10951389 -.00049512  00000+0 -14168-2 0  2588
2 54198  53.1581 213.1520 0001268  91.6417   8.4653 15.35418038    16

AllMySatでSTARLINK-5246をリアルタイム追跡

Download on the App Store